Flag for Qatar Weather past 2 weeks in Al Khor, Qatar

Now
91 °F

Clear.


Feels Like: 114 °F
Forecast: 84 / 106 °F
Wind: 1 mph from North

Location: Doha International Airport

Current Time: Sep 1, 2015 at 1:49:36 AM

Latest Report: Sep 1, 2015 at 12:00 AM


Visibility: 10 mi

Pressure: 29.59 "Hg

Humidity: 75%

Dew point: 82 °F

Historic Weather in Al Khor — Graph

°F

Al Khor temperature yesterday

Maximum temperature yesterday: 106 °F (at 2:00 PM)
Minimum temperature yesterday: 91 °F (at 6:00 AM)
Average temperature yesterday: 97 °F

Past Weeks' High & Low Weather Summary

 TemperatureHumidityPressure
High117 °F (Aug 25, 12:00 PM)84% (Aug 21, 6:00 AM)29.65 "Hg (Aug 21, 6:00 AM)
Low90 °F (Aug 18, 4:00 AM)16% (Aug 25, 12:00 PM)29.50 "Hg (Aug 17, 4:00 PM)
Average98 °F59%29.56 "Hg
* Reported Midnight between Aug 16 and Aug 17 — Midnight between Aug 31 and Sep 1, Al Khor, Weather by CustomWeather, © 2015

Note: Actual official high and low records may vary slightly from our data, if they occured in-between our weather recording intervals... More about our weather records

Advertising

Al Khor weather history for previous 24 hours

 ConditionsComfort  
Time TempWeatherWind HumidityBarometerVisibility
12:00 AM
Tue, Sep 1
91 °FClear.1 mph75%29.59 "Hg10 mi
11:00 PM
Mon, Aug 31
91 °FClear.2 mph80%29.59 "Hg10 mi
10:00 PM93 °FClear.3 mph75%29.59 "Hg10 mi
9:00 PM93 °FClear.7 mph71%29.62 "Hg10 mi
8:00 PM95 °FClear.6 mph67%29.62 "Hg10 mi
7:00 PM95 °FClear.7 mph60%29.59 "Hg10 mi
6:00 PM97 °FClear.9 mph60%29.59 "Hg4 mi
5:00 PM99 °FClear.9 mph57%29.59 "Hg4 mi
4:00 PM100 °FClear.8 mph57%29.59 "Hg4 mi
3:00 PM102 °FExtremely hot.7 mph45%29.59 "HgN/A
2:00 PM106 °FPassing clouds.5 mph36%29.59 "HgN/A
1:00 PM104 °FPassing clouds.7 mph45%29.59 "HgN/A
12:00 PM102 °FClear.6 mph51%29.62 "Hg6 mi
11:00 AM102 °FClear.6 mph48%29.62 "Hg6 mi
10:00 AM100 °FClear.8 mph47%29.65 "Hg6 mi
9:00 AM100 °FClear.3 mph60%29.65 "Hg5 mi
8:00 AM99 °FClear.3 mph57%29.65 "Hg5 mi
7:00 AM97 °FClear.2 mph63%29.62 "Hg5 mi
6:00 AM91 °FClear.No wind75%29.62 "Hg4 mi
5:00 AM93 °FClear.3 mph71%29.59 "Hg4 mi
3:00 AM93 °FClear.3 mph71%29.56 "Hg4 mi
2:00 AM93 °FClear.3 mph71%29.56 "Hg4 mi
Weather by CustomWeather, © 2015

See weather overviewHow to use our weather pages